[[{"header":{"parameterUnit":"m.s-1","parameterCategory":1,"la1":30.2991,"la2":30.254,"lo1":-89.0895,"lo2":-89.0444,"dy":0.0017,"dx":0.0017,"nx":28,"ny":28,"refTime":"2023-03-21T21:00:00:Z","depth":0,"parameterNumber":2,"parameterNumberName":"U-component_of_WINDS"},"data":[0,0,0,0,0,0,0,0,0,0,0,0,0,0,0,0,0,0,0,0,0,0,0,0,0,0,0,0,0,0,0,0,0,0,0,0,0,0,0,0,0,0,0,0,0,0,0,0,0,0,0,0,0,0,0,0,0,0,-1.8472,-1.8473,0,-1.8531,-1.8532,-1.8532,-1.8544,-1.8543,-1.8543,-1.8542,-1.8604,-1.8606,-1.8608,0,0,0,0,0,0,0,0,0,0,0,0,0,-1.837,-1.8372,-1.8472,-1.8473,-1.8473,-1.8531,-1.8532,-1.8533,-1.8544,-1.8543,-1.8542,-1.8542,-1.8603,-1.8605,-1.8608,0,0,0,0,0,0,0,0,0,0,0,0,0,-1.842,-1.8372,-1.8472,-1.8486,-1.8488,-1.8531,-1.8532,-1.8533,-1.8544,-1.8543,-1.8542,-1.8542,-1.8602,-1.8605,-1.8608,-1.8642,0,0,-1.8618,-1.8619,0,0,0,0,0,0,0,0,-1.8417,-1.8424,-1.8483,-1.8485,-1.8487,-1.8529,-1.8518,-1.8569,-1.8544,-1.8522,-1.8542,-1.8541,-1.8579,-1.8584,-1.8597,-1.8645,-1.8647,-1.8618,-1.862,-1.8621,-1.8622,0,0,0,0,0,0,0,-1.8414,-1.8421,-1.8495,-1.8484,-1.8486,-1.849,-1.8496,-1.8528,-1.8554,-1.8524,-1.8525,-1.8532,-1.858,-1.8594,-1.8599,-1.8648,-1.8618,-1.8621,-1.8623,-1.8624,-1.8727,-1.8728,0,0,0,0,0,0,-1.8408,-1.8418,-1.8493,-1.8497,-1.845,-1.8492,-1.8499,-1.8516,-1.8554,-1.8559,-1.8533,-1.8532,-1.8589,-1.8595,-1.8601,-1.8643,-1.8621,-1.8624,-1.8626,-1.8726,-1.8727,-1.8728,0,0,0,0,0,0,-1.8405,-1.8414,-1.8491,-1.8458,-1.8468,-1.8494,-1.8514,-1.8518,-1.8531,-1.856,-1.8565,-1.8542,-1.8589,-1.8596,-1.8632,-1.8645,-1.8626,-1.8628,-1.8725,-1.8726,-1.8728,-1.8727,0,0,0,0,0,0,-1.8402,-1.8413,-1.8426,-1.8458,-1.847,-1.852,-1.8515,-1.852,-1.8537,-1.8537,-1.857,-1.8575,-1.8589,-1.8627,-1.8635,-1.8649,-1.8631,-1.8724,-1.8726,-1.8727,-1.8725,-1.8728,-1.8729,0,0,0,0,0,-1.8399,-1.8424,-1.8427,-1.8436,-1.8486,-1.8521,-1.8528,-1.8543,-1.8538,-1.8551,-1.857,-1.8574,-1.8642,-1.863,-1.8639,-1.8655,-1.8723,-1.8725,-1.8727,-1.8725,-1.8727,-1.8729,0,0,0,0,0,0,-1.8392,-1.8428,-1.8432,-1.8468,-1.8491,-1.8523,-1.854,-1.8545,-1.8571,-1.857,-1.8589,-1.8596,-1.863,-1.8646,-1.8632,-1.8689,-1.8682,-1.8686,-1.8678,-1.868,-1.8682,-1.8677,-1.8633,0,0,0,0,0,-1.8395,-1.842,-1.845,-1.8479,-1.8491,-1.8513,-1.8529,-1.8539,-1.8564,-1.8574,-1.8595,-1.862,-1.8647,-1.8665,-1.8691,-1.8728,-1.8736,-1.8743,-1.8745,-1.8747,-1.875,-1.877,-1.8774,-1.8734,-1.8734,-1.8734,0,0,-1.8401,-1.8424,-1.8438,-1.8478,-1.8498,-1.8524,-1.8521,-1.8549,-1.8568,-1.8579,-1.8613,-1.8629,-1.8658,-1.8694,-1.8711,-1.8709,-1.8762,-1.8749,-1.875,-1.8752,-1.8773,-1.8776,-1.878,-1.8736,-1.8735,-1.8735,0,0,-1.8425,-1.8445,-1.8471,-1.849,-1.852,-1.8535,-1.8541,-1.8572,-1.8583,-1.8618,-1.8626,-1.865,-1.8697,-1.8717,-1.8733,-1.8766,-1.877,-1.8774,-1.8784,-1.8804,-1.8807,-1.881,-1.8821,-1.8825,-1.8777,-1.8777,-1.8777,0,-1.8429,-1.8468,-1.8484,-1.8511,-1.8528,-1.8539,-1.8565,-1.8584,-1.862,-1.8632,-1.8629,-1.8688,-1.8708,-1.8749,-1.8757,-1.877,-1.8778,-1.877,-1.8805,-1.8808,-1.8811,-1.8822,-1.8827,-1.8777,-1.8777,-1.8777,-1.8777,0,-1.8471,-1.8498,-1.8516,-1.855,-1.857,-1.8597,-1.8617,-1.8635,-1.8644,-1.8659,-1.8695,-1.8719,-1.8751,-1.8762,-1.877,-1.8804,-1.8802,-1.8802,-1.8795,-1.8815,-1.8826,-1.883,-1.8777,-1.8777,-1.8777,-1.8777,0,0,-1.8493,-1.8536,-1.8542,-1.8558,-1.8591,-1.8613,-1.864,-1.8671,-1.8686,-1.8711,-1.8735,-1.8774,-1.8775,-1.8793,-1.8804,-1.8822,-1.8846,-1.882,-1.8821,-1.8824,-1.8885,-1.8884,-1.8889,-1.885,-1.8851,-1.8851,-1.8882,0,-1.852,-1.8569,-1.8584,-1.8625,-1.865,-1.8661,-1.8685,-1.8708,-1.8724,-1.8748,-1.8765,-1.8793,-1.8791,-1.8802,-1.882,-1.8839,-1.8859,-1.8837,-1.8872,-1.8873,-1.8864,-1.8895,-1.8894,-1.8922,-1.8887,-1.8887,-1.8888,0,-1.8559,-1.8585,-1.8628,-1.8658,-1.8669,-1.869,-1.872,-1.8743,-1.877,-1.878,-1.8801,-1.8811,-1.884,-1.8832,-1.8874,-1.8859,-1.8874,-1.8886,-1.8888,-1.8891,-1.8881,-1.8898,-1.8931,-1.8935,-1.8895,-1.8894,-1.8894,0,-1.857,-1.8615,-1.8647,-1.866,-1.8696,-1.8711,-1.8727,-1.8753,-1.8771,-1.8797,-1.8809,-1.8838,-1.8854,-1.8877,-1.8895,-1.8888,-1.8935,-1.8928,-1.8944,-1.8944,-1.8953,-1.8952,-1.8988,-1.8964,-1.8964,-1.8964,-1.8963,0,-1.8599,-1.8625,-1.8652,-1.8672,-1.8701,-1.8719,-1.8748,-1.8764,-1.8788,-1.8811,-1.8822,-1.8844,-1.8866,-1.8891,-1.8905,-1.8938,-1.8945,-1.8954,-1.8957,-1.8953,-1.8951,-1.8963,-1.8961,-1.8965,-1.8964,-1.8964,-1.8964,0,-1.8617,-1.8635,-1.8671,-1.8702,-1.871,-1.8731,-1.8758,-1.8777,-1.8793,-1.8823,-1.8831,-1.8856,-1.8886,-1.8906,-1.8944,-1.8954,-1.8989,-1.8992,-1.8979,-1.8981,-1.8995,-1.8993,-1.904,-1.9047,-1.9017,-1.9018,-1.9018,0,-1.8634,-1.8654,-1.8687,-1.8703,-1.8719,-1.8745,-1.8763,-1.8781,-1.8799,-1.8832,-1.8847,-1.8878,-1.8903,-1.8951,-1.8973,-1.9002,-1.9006,-1.902,-1.9011,-1.9005,-1.9006,-1.9004,-1.9007,-1.9022,-1.9022,-1.9022,-1.9022,0,-1.8662,-1.8671,-1.8696,-1.8724,-1.8745,-1.8768,-1.8792,-1.8805,-1.8827,-1.8848,-1.8878,-1.8897,-1.8936,-1.8967,-1.8998,-1.9015,-1.9023,-1.9025,-1.903,-1.9025,-1.9017,-1.9022,-1.8983,-1.9024,-1.9024,-1.9024,-1.9023,-1.9023,-1.868,-1.8698,-1.8724,-1.8752,-1.8771,-1.8793,-1.8813,-1.8831,-1.8857,-1.8889,-1.8899,-1.8931,-1.8958,-1.9001,-1.9018,-1.9044,-1.9043,-1.905,-1.9052,-1.9053,-1.9053,-1.9013,-1.905,-1.905,-1.905,-1.905,-1.905,0,-1.8709,-1.8726,-1.8751,-1.8784,-1.8805,-1.881,-1.8836,-1.8854,-1.8882,-1.8906,-1.8931,-1.8966,-1.8995,-1.902,-1.905,-1.9066,-1.907,-1.9073,-1.9072,-1.9076,-1.9053,-1.9045,-1.9069,-1.9069,-1.9069,-1.9069,-1.9069,-1.9069,-1.8727,-1.8758,-1.8769,-1.881,-1.8828,-1.8858,-1.8873,-1.8893,-1.8912,-1.8951,-1.8975,-1.8991,-1.9015,-1.9048,-1.9075,-1.9082,-1.9092,-1.9095,-1.9102,-1.908,-1.9078,-1.9075,-1.9068,-1.9097,-1.9097,-1.9123,-1.9123,-1.9123]},{"header":{"parameterUnit":"m.s-1","parameterCategory":1,"la1":30.2991,"la2":30.254,"lo1":-89.0895,"lo2":-89.0444,"dy":0.0017,"dx":0.0017,"nx":28,"ny":28,"refTime":"2023-03-21T21:00:00:Z","depth":0,"parameterNumber":3,"parameterNumberName":"V-component_of_WINDS"},"data":[0,0,0,0,0,0,0,0,0,0,0,0,0,0,0,0,0,0,0,0,0,0,0,0,0,0,0,0,0,0,0,0,0,0,0,0,0,0,0,0,0,0,0,0,0,0,0,0,0,0,0,0,0,0,0,0,0,0,3.8943,3.8944,0,3.8983,3.8983,3.8984,3.8959,3.8958,3.8957,3.8956,3.8993,3.8995,3.8997,0,0,0,0,0,0,0,0,0,0,0,0,0,3.8842,3.8844,3.8943,3.8944,3.8944,3.8983,3.8983,3.8984,3.8959,3.8958,3.8956,3.8955,3.8993,3.8995,3.8997,0,0,0,0,0,0,0,0,0,0,0,0,0,3.8884,3.8844,3.8943,3.8937,3.8936,3.8983,3.8983,3.8984,3.896,3.8958,3.8956,3.8954,3.8992,3.8995,3.8998,3.9052,0,0,3.9007,3.9009,0,0,0,0,0,0,0,0,3.8881,3.8888,3.8937,3.8937,3.8937,3.8964,3.8961,3.9007,3.896,3.8951,3.8956,3.8954,3.8985,3.8988,3.9,3.9054,3.9055,3.9008,3.901,3.9011,3.9012,0,0,0,0,0,0,0,3.8879,3.8886,3.8959,3.8938,3.8938,3.893,3.8934,3.897,3.8977,3.8951,3.895,3.8955,3.8984,3.8997,3.9,3.9056,3.9008,3.901,3.9012,3.9013,3.9155,3.9157,0,0,0,0,0,0,3.8877,3.8883,3.8957,3.896,3.8904,3.8934,3.8938,3.8957,3.8976,3.8978,3.8956,3.8954,3.8992,3.8997,3.9001,3.9066,3.9011,3.9014,3.9016,3.9153,3.9156,3.9158,0,0,0,0,0,0,3.8875,3.8884,3.8956,3.8921,3.893,3.8937,3.8959,3.8959,3.8971,3.898,3.8981,3.8968,3.8991,3.8997,3.904,3.9067,3.9015,3.9018,3.9151,3.9154,3.9157,3.9195,0,0,0,0,0,0,3.8872,3.8883,3.8905,3.8922,3.8932,3.8995,3.8961,3.8961,3.8977,3.8974,3.8991,3.8992,3.899,3.9035,3.9043,3.907,3.902,3.9149,3.9152,3.9156,3.9191,3.9199,3.9205,0,0,0,0,0,3.8868,3.8913,3.8906,3.8915,3.8959,3.8996,3.9002,3.8999,3.8979,3.9001,3.9006,3.8992,3.9062,3.904,3.9048,3.9077,3.9147,3.9151,3.9155,3.9188,3.9197,3.9205,0,0,0,0,0,0,3.8898,3.8916,3.8908,3.896,3.8977,3.8992,3.9019,3.9009,3.9031,3.9027,3.9022,3.9026,3.907,3.9077,3.9052,3.9129,3.9101,3.9107,3.9123,3.9132,3.9139,3.9136,3.9023,0,0,0,0,0,3.8911,3.8941,3.8954,3.8999,3.9008,3.9012,3.9028,3.9024,3.9041,3.9048,3.9057,3.9073,3.9098,3.9116,3.914,3.9192,3.9195,3.9216,3.9222,3.9228,3.9234,3.9261,3.927,3.9172,3.9171,3.9171,0,0,3.8938,3.8951,3.897,3.9005,3.9018,3.9048,3.9018,3.9051,3.9073,3.9053,3.9094,3.91,3.9118,3.9165,3.9187,3.9173,3.9261,3.9234,3.9238,3.924,3.9266,3.9276,3.9284,3.9174,3.9174,3.9173,0,0,3.9002,3.9015,3.9054,3.9067,3.9087,3.9089,3.9098,3.9115,3.9119,3.916,3.9146,3.917,3.9215,3.9228,3.924,3.9307,3.9295,3.9315,3.9352,3.9378,3.9386,3.9393,3.9417,3.9425,3.932,3.9321,3.9321,0,3.9032,3.9078,3.9074,3.9109,3.9124,3.9108,3.9146,3.9159,3.9185,3.9195,3.9179,3.9235,3.9245,3.9295,3.9312,3.9322,3.9332,3.9314,3.9385,3.9392,3.9399,3.9421,3.943,3.9323,3.9323,3.9322,3.9322,0,3.9114,3.9146,3.9174,3.9201,3.9219,3.9255,3.9256,3.9275,3.9269,3.9272,3.9314,3.9326,3.9352,3.9363,3.9358,3.9412,3.9403,3.9386,3.9358,3.9411,3.9432,3.944,3.9326,3.9325,3.9325,3.9324,0,0,3.92,3.9223,3.9234,3.9245,3.9265,3.9289,3.9323,3.935,3.9366,3.9384,3.9412,3.9449,3.9434,3.9448,3.9444,3.9467,3.9519,3.9447,3.9448,3.946,3.9579,3.9592,3.9602,3.9511,3.9512,3.9514,3.9578,0,3.9265,3.9326,3.9324,3.9381,3.9409,3.9393,3.9423,3.9438,3.9441,3.9465,3.9468,3.9495,3.9473,3.9481,3.9504,3.9508,3.9543,3.9503,3.9536,3.9537,3.9533,3.9613,3.9627,3.9687,3.9586,3.9587,3.9588,0,3.935,3.9372,3.9432,3.9447,3.9458,3.9486,3.9509,3.9532,3.9547,3.9548,3.9564,3.9555,3.9588,3.9558,3.9604,3.9577,3.959,3.9594,3.9596,3.9599,3.9567,3.9619,3.9706,3.9715,3.9601,3.96,3.9599,0,3.9406,3.945,3.9492,3.9502,3.9521,3.954,3.9548,3.9562,3.9578,3.9597,3.9607,3.963,3.9643,3.966,3.9658,3.9636,3.9704,3.9674,3.9705,3.9705,3.972,3.9719,3.9811,3.9728,3.9728,3.9728,3.9727,0,3.948,3.9517,3.9517,3.9543,3.9584,3.9579,3.9619,3.9625,3.9638,3.9663,3.965,3.9674,3.9669,3.9692,3.969,3.9728,3.9733,3.9734,3.9733,3.9736,3.9736,3.9745,3.9741,3.973,3.9729,3.9729,3.9729,0,3.9551,3.9552,3.9596,3.961,3.9614,3.9644,3.9655,3.9678,3.968,3.9712,3.972,3.9723,3.9749,3.9748,3.9778,3.9777,3.9823,3.9817,3.9818,3.9817,3.9848,3.9845,3.9949,3.9962,3.987,3.9871,3.9872,0,3.9598,3.9627,3.9643,3.966,3.9669,3.9696,3.9712,3.9707,3.9724,3.9744,3.9764,3.979,3.9811,3.9854,3.9858,3.9881,3.9875,3.991,3.9879,3.988,3.9876,3.9874,3.9877,3.9916,3.9917,3.9918,3.9919,0,3.9682,3.9681,3.9705,3.9729,3.9748,3.9767,3.9783,3.9797,3.9795,3.9814,3.9841,3.9857,3.9888,3.9913,3.9935,3.9942,3.993,3.9929,3.9937,3.994,3.994,3.9941,3.9835,3.9926,3.9926,3.9925,3.9925,3.9924,3.9743,3.9767,3.9782,3.9809,3.9821,3.9837,3.9859,3.9864,3.9887,3.9912,3.9908,3.9939,3.9952,3.998,3.9989,4.0012,3.9999,4.0011,4.0015,4.0018,4.0021,3.9936,4.0015,4.0015,4.0015,4.0015,4.0015,0,3.9826,3.9835,3.9859,3.9883,3.9904,3.9891,3.9908,3.9926,3.9954,3.9968,3.9988,4.0019,4.0043,4.0049,4.0071,4.0089,4.0084,4.0095,4.0094,4.0096,4.0031,4.0022,4.0099,4.0099,4.0099,4.0099,4.0099,4.0099,3.9872,3.9912,3.9913,3.9958,3.9966,3.9997,4.0008,4.0022,4.0033,4.0068,4.0088,4.0092,4.0102,4.0125,4.0147,4.0148,4.0157,4.017,4.0169,4.0109,4.01,4.0092,4.0084,4.0172,4.0172,4.0232,4.0232,4.0232]}]]